Notices

What's New in latest Release from April 7th, 2021:

- Updated Glossary, including Speed of Maximum Gust, and Total Hourly Precipitation

- Updated national and regional climate services offices contacts and prices information

- Addition of station inventory lists for 1981-2010, 1971-2000, and 1961-1990 Normals.

If you haven't already, please take our survey and provide feedback about our website: https://eccc.sondage-survey.ca/f/LanguageSelection.aspx?s=442ca660-fcf1-47c0-95a9-59707d6fd709

Hourly Data Report for July 23, 2020

TORONTO CITY
ONTARIO
Current Station Operator: ECCC - MSC

43°40'00.000" N
79°24'00.000" W
112.50 m
6158355
71508
XTO

Download Data

Hourly Data (July 2020)
Hourly Data Report for July 23, 2020
TIME
LST
Temp Definition
°C
Dew Point Definition
°C
Rel Hum Definition
%
Precip. Amount Definition
mm

Wind Dir Definition
10's deg

Wind Spd Definition
km/h
Visibility Definition
km
Stn Press Definition
kPa
Hmdx Definition


Wind Chill Definition


Weather Definition


00:00 21.3 18.4 84 0.0       100.10 28   LegendNANA
01:00 20.8 17.9 83 0.0       100.10 27   LegendNANA
02:00 20.6 17.8 84 0.0       100.10 26   LegendNANA
03:00 20.3 17.4 83 0.0       100.09 26   LegendNANA
04:00 19.8 17.1 84 0.0       100.14     LegendNANA
05:00 19.7 16.9 84 0.0       100.20     LegendNANA
06:00 20.2 17.0 82 0.0       100.27 25   LegendNANA
07:00 20.7 16.9 79 0.0       100.33 26   LegendNANA
08:00 21.5 17.0 75 0.0       100.34 27   LegendNANA
09:00 22.2 17.1 73 0.0       100.36 28   LegendNANA
10:00 23.5 17.5 69 0.0       100.38 29   LegendNANA
11:00 23.1 16.9 68 0.0       100.41 28   LegendNANA
12:00 25.0 17.4 63 0.0       100.34 31   LegendNANA
13:00 26.8 16.9 55 0.0       100.34 32   LegendNANA
14:00 26.4 16.4 54 0.0       100.35 31   LegendNANA
15:00 25.7 17.1 59 0.0       100.33 31   LegendNANA
16:00 26.0 16.4 55 0.0       100.32 31   LegendNANA
17:00 26.8 17.1 55 0.2       100.32 32   LegendNANA
18:00 27.0 14.7 47 0.0       100.35 31   LegendNANA
19:00 25.4 14.6 51 0.0       100.42 29   LegendNANA
20:00 24.3 14.3 54 0.0       100.45 28   LegendNANA
21:00 23.1 14.1 57 0.0       100.50 27   LegendNANA
22:00 22.2 15.3 65 0.0       100.52 26   LegendNANA
23:00 21.0 15.5 71 0.0       100.57 25   LegendNANA

Notes on Data Quality.

Legend

  • E = Estimated
  • M = Missing
  • NA = Not Available*
  • [empty] = Indicates an unobserved value
Date modified: